Location: Unspecified
(0.0000°N, 0.0000°E)
Time: 02:16:48
(UTC+02:00)

IUS-9 SRM-1 - Visible Passes

Search period start: 24 July 2014 00:00
Search period end: 03 August 2014 00:00
Orbit: 240 x 20787 km, 26.4° (Epoch: 23 July)

Date Brightness Start Highest point End Pass type
(mag) Time Alt. Az. Time Alt. Az. Time Alt. Az.
24 Jul 8.6 02:59:33 65° S 00:52:11 85° WSW 04:18:10 10° SE visible
24 Jul 8.5 23:32:41 10° WNW 01:15:39 78° WSW 04:36:35 10° SE visible
25 Jul 8.4 23:50:55 10° WNW 01:38:24 72° WSW 04:54:43 10° SE visible
26 Jul 7.0 17:42:20 10° NNW 17:49:51 19° NNE 18:16:51 10° ENE visible
27 Jul 8.3 00:09:13 10° WNW 02:00:44 67° WSW 05:12:34 10° SE visible
27 Jul 7.2 17:58:52 10° NNW 18:07:59 23° NNE 18:59:07 10° E visible
28 Jul 8.2 00:27:39 10° WNW 02:22:50 61° WSW 05:30:10 10° SE visible
28 Jul 7.4 18:15:16 10° NNW 18:26:02 27° NE 20:55:37 10° ESE visible
29 Jul 8.1 00:46:16 10° WNW 02:44:56 55° WSW 05:47:32 10° SE visible
29 Jul 7.5 18:31:33 10° NNW 18:43:58 31° NE 21:12:13 15° ESE visible
30 Jul 8.1 01:05:09 10° WNW 03:07:19 50° WSW 06:04:39 10° ESE visible
30 Jul 7.7 18:47:42 10° NNW 19:01:49 36° NE 21:27:57 19° ESE visible
31 Jul 8.0 01:24:25 10° WNW 05:47:48 47° SSW 06:21:33 10° ESE visible
31 Jul 7.7 19:03:42 10° NNW 19:19:36 40° NE 23:18:08 10° ESE visible
01 Aug 7.9 01:44:15 10° WNW 06:11:36 45° SSW 06:38:13 10° ESE visible
01 Aug 7.8 19:19:35 10° NW 19:37:20 45° NE 23:44:07 10° ESE visible
02 Aug 7.8 02:04:53 10° W 06:32:59 44° S 06:54:39 10° ESE visible
02 Aug 7.9 19:35:20 10° NW 19:55:03 50° NE 22:15:18 33° ESE visible
